When you browse on this site, cookies collect data to enhance your experience and personalize the content and advertising you see.
Visit our Privacy Policy to learn more. By continuing to use the site, you agree to this use of cookies and data.
  • In Hungary
  • List of Countries
  • For 7 days
  • Water Temperature
  • Weather Map
  • News
  • Weather Widgets
  • user-avatar
    Login

    Hourly Weather Nathenje

    Today, 8 December, Sunday

    Time Temperature Precipitation Wind Pressure Humidity
    00:00 +23°C° 0 mm 1 mps 666 mmHg 70%
    01:00 +22°C° 0 mm 1 mps 666 mmHg 70%
    02:00 +20°C° 0 mm 0 mps 665 mmHg 71%
    03:00 +20°C° 0 mm 0 mps 666 mmHg 72%
    04:00 +20°C° 0 mm 0 mps 666 mmHg 74%
    05:00 +19°C° 0 mm 0 mps 666 mmHg 76%
    06:00 +21°C° 0 mm 0 mps 666 mmHg 71%
    07:00 +26°C° 0 mm 1 mps 667 mmHg 66%
    08:00 +28°C° 0 mm 1 mps 668 mmHg 61%
    09:00 +30°C° 0.1 mm 1 mps 668 mmHg 55%
    10:00 +30°C° 0.1 mm 0 mps 668 mmHg 49%
    11:00 +32°C° 0.1 mm 0 mps 669 mmHg 42%
    12:00 +33°C° 0.1 mm 1 mps 668 mmHg 45%
    13:00 +31°C° 0.1 mm 2 mps 667 mmHg 48%
    14:00 +30°C° 0.1 mm 2 mps 666 mmHg 51%
    15:00 +30°C° 0.2 mm 2 mps 665 mmHg 54%
    16:00 +29°C° 0.2 mm 2 mps 665 mmHg 56%
    17:00 +29°C° 0.2 mm 2 mps 665 mmHg 58%
    18:00 +28°C° 0.1 mm 2 mps 665 mmHg 63%
    19:00 +26°C° 0.1 mm 1 mps 665 mmHg 67%
    20:00 +25°C° 0.1 mm 1 mps 665 mmHg 72%
    21:00 +25°C° 0 mm 1 mps 665 mmHg 73%
    22:00 +24°C° 0 mm 1 mps 665 mmHg 75%
    23:00 +24°C° 0 mm 1 mps 666 mmHg 76%

    Tomorrow, 9 December, Monday

    Time Temperature Precipitation Wind Pressure Humidity
    00:00 +23°C° 0 mm 1 mps 665 mmHg 77%
    01:00 +23°C° 0 mm 1 mps 665 mmHg 77%
    02:00 +21°C° 0 mm 0 mps 665 mmHg 78%
    03:00 +21°C° 0 mm 0 mps 665 mmHg 79%
    04:00 +20°C° 0 mm 0 mps 665 mmHg 81%
    05:00 +20°C° 0 mm 0 mps 665 mmHg 82%
    06:00 +24°C° 0 mm 1 mps 666 mmHg 76%
    07:00 +26°C° 0 mm 1 mps 667 mmHg 69%
    08:00 +27°C° 0 mm 2 mps 668 mmHg 63%
    09:00 +29°C° 0 mm 2 mps 667 mmHg 57%
    10:00 +30°C° 0 mm 2 mps 667 mmHg 50%
    11:00 +32°C° 0 mm 2 mps 667 mmHg 44%
    12:00 +32°C° 0 mm 2 mps 666 mmHg 44%
    13:00 +31°C° 0 mm 2 mps 666 mmHg 45%
    14:00 +31°C° 0 mm 2 mps 665 mmHg 45%
    15:00 +31°C° 0 mm 2 mps 665 mmHg 48%
    16:00 +30°C° 0 mm 2 mps 665 mmHg 51%
    17:00 +29°C° 0 mm 2 mps 664 mmHg 54%
    18:00 +28°C° 0 mm 2 mps 665 mmHg 57%
    19:00 +26°C° 0 mm 2 mps 665 mmHg 61%
    20:00 +25°C° 0 mm 2 mps 665 mmHg 64%
    21:00 +25°C° 0 mm 1 mps 665 mmHg 67%
    22:00 +24°C° 0 mm 1 mps 665 mmHg 70%
    23:00 +23°C° 0 mm 1 mps 665 mmHg 73%

    Day after tomorrow, 10 December, Tuesday

    Time Temperature Precipitation Wind Pressure Humidity
    00:00 +23°C° 0 mm 1 mps 665 mmHg 75%
    01:00 +23°C° 0 mm 1 mps 665 mmHg 78%
    02:00 +23°C° 0 mm 1 mps 665 mmHg 80%
    03:00 +23°C° 0 mm 1 mps 665 mmHg 81%
    04:00 +22°C° 0 mm 1 mps 665 mmHg 83%
    05:00 +22°C° 0 mm 1 mps 665 mmHg 85%
    06:00 +24°C° 0.3 mm 2 mps 666 mmHg 79%
    07:00 +25°C° 0.3 mm 3 mps 667 mmHg 73%
    08:00 +26°C° 0.3 mm 4 mps 667 mmHg 67%
    09:00 +27°C° 1.1 mm 4 mps 667 mmHg 66%
    10:00 +28°C° 1.1 mm 4 mps 667 mmHg 64%
    11:00 +28°C° 1.1 mm 4 mps 667 mmHg 63%
    12:00 +28°C° 1.7 mm 3 mps 666 mmHg 67%
    13:00 +27°C° 1.7 mm 3 mps 666 mmHg 70%
    14:00 +26°C° 1.7 mm 2 mps 665 mmHg 74%
    15:00 +25°C° 1.7 mm 2 mps 665 mmHg 77%
    16:00 +25°C° 1.7 mm 2 mps 665 mmHg 80%
    17:00 +24°C° 1.7 mm 2 mps 665 mmHg 82%
    18:00 +24°C° 1.1 mm 2 mps 666 mmHg 85%
    19:00 +23°C° 1.1 mm 1 mps 666 mmHg 87%
    20:00 +23°C° 1.1 mm 1 mps 666 mmHg 90%
    21:00 +23°C° 0.1 mm 1 mps 666 mmHg 89%
    22:00 +23°C° 0.1 mm 1 mps 666 mmHg 88%
    23:00 +23°C° 0.1 mm 1 mps 667 mmHg 87%

    11 December, Wednesday

    Time Temperature Precipitation Wind Pressure Humidity
    00:00 +22°C° 0 mm 1 mps 666 mmHg 87%
    01:00 +22°C° 0 mm 1 mps 666 mmHg 88%
    02:00 +22°C° 0 mm 1 mps 666 mmHg 88%
    03:00 +22°C° 0 mm 1 mps 666 mmHg 88%
    04:00 +22°C° 0 mm 1 mps 666 mmHg 88%
    05:00 +22°C° 0 mm 1 mps 666 mmHg 88%
    06:00 +23°C° 0.1 mm 1 mps 667 mmHg 84%
    07:00 +24°C° 0.1 mm 1 mps 667 mmHg 81%
    08:00 +24°C° 0.1 mm 2 mps 668 mmHg 77%
    09:00 +26°C° 0.8 mm 2 mps 668 mmHg 73%
    10:00 +27°C° 0.8 mm 2 mps 668 mmHg 69%
    11:00 +28°C° 0.8 mm 2 mps 668 mmHg 65%
    12:00 +28°C° 0.2 mm 2 mps 667 mmHg 67%
    13:00 +27°C° 0.2 mm 3 mps 666 mmHg 69%
    14:00 +27°C° 0.2 mm 3 mps 665 mmHg 71%
    15:00 +27°C° 0.1 mm 3 mps 665 mmHg 72%
    16:00 +26°C° 0.1 mm 2 mps 665 mmHg 73%
    17:00 +26°C° 0.1 mm 2 mps 665 mmHg 75%
    18:00 +25°C° 0.5 mm 2 mps 665 mmHg 80%
    19:00 +24°C° 0.5 mm 2 mps 666 mmHg 86%
    20:00 +23°C° 0.5 mm 2 mps 666 mmHg 91%
    21:00 +23°C° 0.8 mm 1 mps 666 mmHg 91%
    22:00 +23°C° 0.8 mm 1 mps 666 mmHg 90%
    23:00 +23°C° 0.8 mm 1 mps 667 mmHg 89%

    12 December, Thursday

    Time Temperature Precipitation Wind Pressure Humidity
    00:00 +23°C° 0.1 mm 1 mps 666 mmHg 88%
    01:00 +23°C° 0.1 mm 1 mps 666 mmHg 88%
    02:00 +22°C° 0.1 mm 1 mps 666 mmHg 87%
    03:00 +22°C° 0 mm 1 mps 666 mmHg 87%
    04:00 +22°C° 0 mm 1 mps 666 mmHg 88%
    05:00 +22°C° 0 mm 1 mps 666 mmHg 89%
    06:00 +23°C° 0.6 mm 1 mps 667 mmHg 84%
    07:00 +24°C° 0.6 mm 1 mps 667 mmHg 79%
    08:00 +26°C° 0.6 mm 1 mps 668 mmHg 75%
    09:00 +26°C° 1.8 mm 1 mps 668 mmHg 72%
    10:00 +27°C° 1.8 mm 2 mps 668 mmHg 69%
    11:00 +28°C° 1.8 mm 2 mps 668 mmHg 66%
    12:00 +27°C° 2 mm 2 mps 667 mmHg 69%
    13:00 +26°C° 2 mm 2 mps 667 mmHg 71%
    14:00 +26°C° 2 mm 2 mps 666 mmHg 74%
    15:00 +25°C° 0.9 mm 2 mps 666 mmHg 75%
    16:00 +25°C° 0.9 mm 2 mps 666 mmHg 76%
    17:00 +25°C° 0.9 mm 2 mps 666 mmHg 77%
    18:00 +24°C° 0 mm 1 mps 666 mmHg 79%
    19:00 +23°C° 0 mm 1 mps 666 mmHg 80%
    20:00 +22°C° 0 mm 1 mps 667 mmHg 82%
    21:00 +22°C° 0 mm 1 mps 667 mmHg 81%
    22:00 +22°C° 0 mm 1 mps 667 mmHg 81%
    23:00 +20°C° 0 mm 0 mps 667 mmHg 80%

    13 December, Friday

    Time Temperature Precipitation Wind Pressure Humidity
    00:00 +20°C° 0 mm 0 mps 667 mmHg 81%
    01:00 +20°C° 0 mm 0 mps 667 mmHg 82%
    02:00 +20°C° 0 mm 0 mps 666 mmHg 83%
    03:00 +20°C° 0.5 mm 0 mps 667 mmHg 84%
    04:00 +22°C° 0.5 mm 1 mps 667 mmHg 85%
    05:00 +22°C° 0.5 mm 1 mps 667 mmHg 86%
    06:00 +23°C° 0.7 mm 1 mps 668 mmHg 81%
    07:00 +24°C° 0.7 mm 1 mps 668 mmHg 77%
    08:00 +25°C° 0.7 mm 1 mps 669 mmHg 72%
    09:00 +26°C° 0.5 mm 1 mps 669 mmHg 68%
    10:00 +28°C° 0.5 mm 1 mps 669 mmHg 63%
    11:00 +29°C° 0.5 mm 1 mps 669 mmHg 59%
    12:00 +28°C° 1 mm 1 mps 669 mmHg 61%
    13:00 +28°C° 1 mm 1 mps 668 mmHg 64%
    14:00 +27°C° 1 mm 1 mps 667 mmHg 66%
    15:00 +27°C° 1.3 mm 1 mps 667 mmHg 71%
    16:00 +26°C° 1.3 mm 1 mps 667 mmHg 75%
    17:00 +25°C° 1.3 mm 1 mps 667 mmHg 80%
    18:00 +24°C° 0.1 mm 1 mps 667 mmHg 81%
    19:00 +23°C° 0.1 mm 1 mps 667 mmHg 83%
    20:00 +23°C° 0.1 mm 1 mps 668 mmHg 84%
    21:00 +22°C° 0.1 mm 1 mps 668 mmHg 85%
    22:00 +22°C° 0.1 mm 1 mps 668 mmHg 86%
    23:00 +22°C° 0.1 mm 1 mps 668 mmHg 87%
    Show more